Change the Weather History Date:

Friday, October 11, 2013

  Actual Average (KTCM) Record (KTCM)
Temperature  
Mean Temperature 48 °F -  
Max Temperature 55 °F 59 °F 88 °F (1991)
Min Temperature 41 °F 41 °F 28 °F (2009)
Degree Days  
Heating Degree Days 17    
Moisture  
Dew Point 46 °F    
Average Humidity 92    
Maximum Humidity 100    
Minimum Humidity 72    
Precipitation  
Precipitation 0.00 in - - ()
Sea Level Pressure  
Sea Level Pressure 30.12 in    
Wind  
Wind Speed 0 mph (North)    
Max Wind Speed 0 mph    
Max Gust Speed -    
Visibility 8 miles    
Events Fog    
Averages and records for this station are not official NWS values.
T = Trace of Precipitation, MM = Missing Value Source: NWS Daily Summary

Daily Weather History Graph

Daily Weather History Graph

Search for Another Location

Airport or City:

Trip Planner

Search our weather history database for the weather conditions in past years. The results will help you decide how hot, cold, wet, or windy it might be!

Date:

Astronomy

Oct. 11, 2013 Rise Set
Actual Time 7:22 AM PDT 6:28 PM PDT
Civil Twilight 6:51 AM PDT 6:59 PM PDT
Nautical Twilight 6:16 AM PDT 7:34 PM PDT
Astronomical Twilight 5:40 AM PDT 8:09 PM PDT
Moon 2:20 PM PDT (10/11) No Moon Set
Length of Visible Light 12h 07m
Length of Day
11h 06m
Waxing Crescent, 48% of the Moon is Illuminated
Oct 11
Waxing Crescent
Oct 11
First Quarter
Oct 18
Full
Oct 26
Last Quarter
Nov 3
New

Hourly Weather History & Observations

Time (PDT) Temp. Dew Point Humidity Pressure Visibility Wind Dir Wind Speed Gust Speed Precip Events Conditions
12:15 AM 50.0 °F 50.0 °F 100% 30.08 in 10.0 mi Calm Calm - N/A   Unknown
12:35 AM 48.2 °F 48.2 °F 100% 30.08 in 10.0 mi Calm Calm - N/A   Unknown
12:55 AM 48.2 °F 48.2 °F 100% 30.10 in 10.0 mi Calm Calm - N/A   Unknown
1:15 AM 48.2 °F 48.2 °F 100% 30.09 in 10.0 mi Calm Calm - N/A   Unknown
1:35 AM 48.2 °F 48.2 °F 100% 30.09 in 9.0 mi Calm Calm - N/A   Unknown
1:55 AM 48.2 °F 48.2 °F 100% 30.09 in 9.0 mi Calm Calm - N/A   Unknown
2:15 AM 48.2 °F 48.2 °F 100% 30.10 in 10.0 mi Calm Calm - N/A   Unknown
2:35 AM 46.4 °F 46.4 °F 100% 30.11 in 7.0 mi Calm Calm - N/A   Unknown
2:55 AM 46.4 °F 46.4 °F 100% 30.11 in 1.0 mi Calm Calm - N/A   Mist
3:15 AM 46.4 °F 46.4 °F 100% 30.11 in 2.0 mi Calm Calm - N/A   Mist
3:35 AM 46.4 °F 46.4 °F 100% 30.11 in 3.0 mi Calm Calm - N/A   Mist
3:55 AM 46.4 °F 46.4 °F 100% 30.11 in 2.5 mi Calm Calm - N/A   Mist
4:15 AM 46.4 °F 46.4 °F 100% 30.12 in 5.0 mi Calm Calm - N/A   Mist
4:35 AM 46.4 °F 46.4 °F 100% 30.11 in 3.0 mi Calm Calm - N/A   Mist
4:55 AM 44.6 °F 44.6 °F 100% 30.12 in 4.0 mi Calm Calm - N/A   Mist
5:15 AM 41.0 °F 41.0 °F 100% 30.12 in 0.2 mi Calm Calm - N/A Fog Fog
5:35 AM 41.0 °F 41.0 °F 100% 30.12 in 0.8 mi Calm Calm - N/A   Mist
5:55 AM 41.0 °F 41.0 °F 100% 30.13 in 0.5 mi Calm Calm - N/A Fog Fog
6:15 AM 41.0 °F 41.0 °F 100% 30.13 in 1.5 mi Calm Calm - N/A   Mist
6:35 AM 41.0 °F 41.0 °F 100% 30.13 in 1.2 mi Calm Calm - N/A   Mist
6:55 AM 41.0 °F 41.0 °F 100% 30.13 in 2.5 mi Calm Calm - N/A   Mist
7:15 AM 41.0 °F 41.0 °F 100% 30.13 in 0.8 mi Calm Calm - N/A   Mist
7:35 AM 41.0 °F 41.0 °F 100% 30.13 in 4.0 mi Calm Calm - N/A   Mist
7:55 AM 41.0 °F 41.0 °F 100% 30.13 in 5.0 mi Calm Calm - N/A   Mist
8:15 AM 42.8 °F 42.8 °F 100% 30.13 in 8.0 mi Calm Calm - N/A   Unknown
8:35 AM 44.6 °F 44.6 °F 100% 30.14 in 10.0 mi Calm Calm - N/A   Unknown
8:55 AM 44.6 °F 44.6 °F 100% 30.14 in 10.0 mi Calm Calm - N/A   Unknown
9:15 AM 46.4 °F 46.4 °F 100% 30.14 in 10.0 mi Calm Calm - N/A   Unknown
9:35 AM 46.4 °F 46.4 °F 100% 30.15 in 10.0 mi Calm Calm - N/A   Unknown
9:55 AM 48.2 °F 48.2 °F 100% 30.15 in 10.0 mi Calm Calm - N/A   Unknown
10:15 AM 50.0 °F 48.2 °F 94% 30.15 in 10.0 mi Calm Calm - N/A   Unknown
10:35 AM 51.8 °F 48.2 °F 88% 30.15 in 10.0 mi Calm Calm - N/A   Unknown
10:55 AM 53.6 °F 48.2 °F 82% 30.15 in 10.0 mi Calm Calm - N/A   Unknown
11:15 AM 55.4 °F 48.2 °F 77% 30.15 in 10.0 mi Calm Calm - N/A   Unknown
11:35 AM 55.4 °F 46.4 °F 72% 30.15 in 10.0 mi Calm Calm - N/A   Unknown
11:55 AM 55.4 °F 46.4 °F 72% 30.14 in 10.0 mi Calm Calm - N/A   Unknown
12:15 PM 55.4 °F 46.4 °F 72% 30.15 in 10.0 mi Calm Calm - N/A   Unknown
12:35 PM 55.4 °F 46.4 °F 72% 30.14 in 10.0 mi Calm Calm - N/A   Unknown
12:55 PM 55.4 °F 46.4 °F 72% 30.14 in 10.0 mi Calm Calm - N/A   Unknown
1:15 PM 55.4 °F 46.4 °F 72% 30.14 in 10.0 mi Calm Calm - N/A   Unknown
1:35 PM 55.4 °F 46.4 °F 72% 30.14 in 10.0 mi Calm Calm - N/A   Unknown
1:55 PM 55.4 °F 46.4 °F 72% 30.14 in 10.0 mi Calm Calm - N/A   Unknown
2:15 PM 55.4 °F 48.2 °F 77% 30.13 in 10.0 mi Calm Calm - N/A   Unknown
2:35 PM 55.4 °F 46.4 °F 72% 30.14 in 10.0 mi Calm Calm - N/A   Unknown
2:55 PM 55.4 °F 46.4 °F 72% 30.13 in 10.0 mi Calm Calm - N/A   Unknown
3:15 PM 55.4 °F 46.4 °F 72% 30.13 in 10.0 mi Calm Calm - N/A   Unknown
3:35 PM 55.4 °F 46.4 °F 72% 30.13 in 10.0 mi Calm Calm - N/A   Unknown
3:55 PM 55.4 °F 46.4 °F 72% 30.13 in 10.0 mi Calm Calm - N/A   Unknown
4:15 PM 55.4 °F 48.2 °F 77% 30.13 in 10.0 mi Calm Calm - N/A   Unknown
4:35 PM 53.6 °F 48.2 °F 82% 30.13 in 10.0 mi Calm Calm - N/A   Unknown
4:55 PM 53.6 °F 48.2 °F 82% 30.13 in 10.0 mi Calm Calm - N/A   Unknown
5:15 PM 53.6 °F 46.4 °F 77% 30.12 in 10.0 mi Calm Calm - N/A   Unknown
5:35 PM 53.6 °F 46.4 °F 77% 30.11 in 10.0 mi Calm Calm - N/A   Unknown
5:55 PM 53.6 °F 48.2 °F 82% 30.11 in 10.0 mi Calm Calm - N/A   Unknown
6:15 PM 53.6 °F 48.2 °F 82% 30.11 in 10.0 mi Calm Calm - N/A   Unknown
6:35 PM 51.8 °F 48.2 °F 88% 30.11 in 10.0 mi Calm Calm - N/A   Unknown
6:55 PM 50.0 °F 48.2 °F 94% 30.11 in 10.0 mi Calm Calm - N/A   Unknown
7:15 PM 48.2 °F 48.2 °F 100% 30.11 in 10.0 mi Calm Calm - N/A   Unknown
7:35 PM 48.2 °F 48.2 °F 100% 30.11 in 10.0 mi Calm Calm - N/A   Unknown
7:55 PM 48.2 °F 48.2 °F 100% 30.10 in 10.0 mi Calm Calm - N/A   Unknown
8:15 PM 50.0 °F 50.0 °F 100% 30.10 in 10.0 mi Calm Calm - N/A   Unknown
8:35 PM 48.2 °F 48.2 °F 100% 30.10 in 10.0 mi Calm Calm - N/A   Unknown
8:55 PM 48.2 °F 48.2 °F 100% 30.10 in 10.0 mi Calm Calm - N/A   Unknown
9:15 PM 46.4 °F 46.4 °F 100% 30.10 in 10.0 mi Calm Calm - N/A   Unknown
9:35 PM 46.4 °F 46.4 °F 100% 30.10 in 10.0 mi Calm Calm - N/A   Unknown
9:55 PM 48.2 °F 48.2 °F 100% 30.10 in 10.0 mi Calm Calm - N/A   Unknown
10:15 PM 48.2 °F 48.2 °F 100% 30.10 in 10.0 mi Calm Calm - N/A   Unknown
10:35 PM 48.2 °F 48.2 °F 100% 30.10 in 10.0 mi Calm Calm - N/A   Unknown
10:55 PM 48.2 °F 48.2 °F 100% 30.10 in 10.0 mi Calm Calm - N/A   Unknown
11:15 PM 48.2 °F 48.2 °F 100% 30.10 in 10.0 mi Calm Calm - N/A   Unknown
11:35 PM 48.2 °F 48.2 °F 100% 30.09 in 10.0 mi Calm Calm - N/A   Unknown
11:55 PM 48.2 °F 48.2 °F 100% 30.09 in 10.0 mi Calm Calm - N/A   Unknown